Location: Lake Sonoma
(38.7200°N, 123.0564°W)
Time: 02:16:23
(UTC-08:00)

Daily predictions for brighter satellites

Satellite Brightness Start Highest point End
(mag) Time Altitude Azimuth Time Altitude Azimuth Time Altitude Azimuth
Cosmos 2278 Rocket 4.3 03:55:57 19° SE 03:55:57 19° SE 03:57:34 10° SE
ATLAS CENTAUR Rocket 4.4 03:55:51 44° SSW 03:57:58 47° S 04:04:11 10° ESE
SL-16 R/B 3.7 03:59:24 32° E 03:59:24 32° E 04:03:41 10° NE
USA 215 3.3 04:20:45 10° NE 04:27:16 71° SE 04:28:10 63° S
Cosmos 2237 Rocket 4.3 04:34:09 15° N 04:34:09 15° N 04:35:09 10° NNE
Cosmos 2181 Rocket 4.3 04:27:25 42° NNE 04:29:39 68° E 04:35:58 10° SSE
H-2A ROCKET BODY 4.1 04:32:38 30° SSW 04:34:42 34° S 04:55:18 10° SE
Feng Yun 1-1 Rocket 4.4 04:35:17 10° NNE 04:40:55 71° ESE 04:46:22 10° S
CENTAUR R/B 2.7 04:46:00 56° NNW 04:46:00 56° NNW 04:51:49 10° NNE
Cosmos 1238 Rocket 4.2 04:47:59 26° NNE 04:50:32 51° E 04:56:02 10° SSE
Gbstr 26 Del rocket 3.5 04:51:19 60° ESE 04:51:19 60° ESE 04:54:47 10° SE
Cosmos 972 4.5 04:53:19 73° N 04:53:52 88° ENE 04:59:00 10° SSE
Thor Agena Rocket 4.1 04:57:29 10° S 05:00:56 41° SSW 05:00:56 41° SSW
Meteor 1-20 Rocket 4.4 05:01:43 10° S 05:07:17 72° E 05:12:48 10° NNE
COSMO-SKYMED 1 3.4 05:05:57 10° SSE 05:10:07 49° ENE 05:13:28 15° N
Lacrosse 5 3.8 05:06:04 10° S 05:10:26 29° ESE 05:14:49 10° ENE
Cosmos 921 Rocket 3.8 05:08:51 26° N 05:11:09 53° ENE 05:15:34 10° SSE
SJ-6F 4.3 05:11:08 10° NNE 05:15:14 86° ESE 05:19:18 10° SSW
Cosmos 2333 Rocket 4.3 05:20:58 12° NNW 05:20:58 12° NNW 05:21:27 10° N
Meteor 1-14 Rocket 4.3 05:14:06 10° SSW 05:19:36 49° WNW 05:25:01 10° N
Cosmos 2297 3.7 05:18:46 47° WNW 05:19:55 56° WSW 05:25:25 10° S
Okean 1 3.5 05:21:05 23° N 05:23:33 71° E 05:27:34 10° SSE
DELTA 2 R/B (1) 4.1 05:23:09 38° WSW 05:24:33 46° SSW 05:29:49 10° SE
Cosmos 2327 Rocket 4.4 05:25:59 10° SSW 05:32:21 73° W 05:38:41 10° N
USA 32 3.9 05:30:04 10° N 05:35:15 66° W 05:40:25 10° S
Cosmos 2278 Rocket 4.0 05:37:52 14° SW 05:37:52 14° SW 05:39:16 10° SW
Cosmos 1300 Rocket 3.8 05:31:38 10° S 05:36:02 70° E 05:40:26 10° NNE
Cosmos 1624 Rocket 4.4 05:31:28 10° NNW 05:36:44 63° ENE 05:41:59 10° SSE
Cosmos 1602 4.5 05:33:29 10° S 05:37:20 55° E 05:41:13 10° NNE
Cosmos 1812 2.9 05:38:57 45° WNW 05:39:17 47° W 05:42:59 10° SSW
GPS 2-05 Rocket1 3.4 05:38:43 39° SW 05:39:36 51° S 05:43:07 10° ESE
SKYMED 3 4.4 05:35:47 10° S 05:40:05 75° WSW 05:43:50 14° NNW
Cosmos 1371 Rocket 4.0 05:35:57 12° NNW 05:40:51 85° ENE 05:46:06 10° SSE
Cosmos 2074 Rocket 4.0 05:35:09 10° SSW 05:41:19 58° W 05:47:30 10° N
Ariane Rocket 3.0 05:36:48 10° NNE 05:41:53 81° ESE 05:46:56 10° SSW
CRYOSAT 2 4.3 05:37:19 10° S 05:42:11 71° W 05:47:05 10° N
Meteor 1-25 Rocket 4.4 05:36:47 10° SSW 05:42:24 49° WNW 05:48:03 10° N
SL-16 R/B 2.8 05:41:26 29° W 05:42:42 32° WNW 05:47:46 10° N
Cosmos 1346 Rocket 2.6 05:40:03 18° NNW 05:42:54 81° W 05:46:49 10° S
Cosmos 292 Rocket 4.2 05:41:21 26° WSW 05:43:21 37° WNW 05:47:50 10° N
Iridium 2 4.0 05:40:43 10° SSW 05:44:18 41° W 05:45:08 35° NW
Meteor 1-13 Rocket 4.5 05:45:03 10° N 05:51:02 80° E 05:56:58 10° SSE
CZ-4 R/B 3.2 05:48:47 10° NNE 05:52:23 33° E 05:55:56 10° SSE
Cosmos 1943 Rocket 4.4 05:49:29 10° N 05:53:22 19° NE 05:57:14 10° E
Cosmos 2184 Rocket 4.2 05:49:20 10° SSW 05:55:12 46° WNW 06:01:09 10° N
SKYMED 2 3.8 05:54:02 10° S 05:58:10 45° W 06:02:05 12° NNW
Cosmos 2151 Rocket 4.4 05:55:48 10° SW 05:59:41 28° WNW 06:03:34 10° NNW
Cosmos 1680 Rocket 4.5 06:00:03 19° W 06:02:08 24° WNW 06:06:19 10° N
Meteor 1-28 Rocket 3.1 06:00:11 10° S 06:03:57 72° W 06:07:45 10° NNW
Cosmos 1633 2.4 06:01:48 10° SSW 06:05:25 70° W 06:09:04 10° N
Cosmos 1536 3.0 06:02:48 10° S 06:06:47 76° E 06:10:47 10° N
SL-24 R/B 4.5 06:01:30 10° N 06:07:08 71° WNW 06:11:50 10° SSW
Abrixas rocket 2.8 06:04:42 10° SW 06:08:01 58° SE 06:11:20 10° ENE
USA 215 3.8 06:04:05 10° NE 06:09:58 37° NNW 06:15:33 11° W
Cosmos 2154 Rocket 3.9 06:04:15 10° SSW 06:10:27 70° W 06:16:39 10° N
Tiangong 2 1.9 06:10:04 22° WNW 06:11:36 37° N 06:14:35 10° ENE
Cosmos 1452 Rocket 4.4 06:07:03 10° N 06:12:10 50° ENE 06:17:17 10° SE
Meteor 2-13 Rocket 4.4 06:08:53 10° SSW 06:14:59 68° W 06:21:09 10° N
IRS-1A Rocket 4.3 06:15:28 10° NNE 06:21:11 84° WNW 06:26:59 10° SSW
Helios 1B rocket 3.3 06:17:39 10° SSE 06:21:40 51° ENE 06:25:42 10° N
Meteor 2-4 Rocket 3.7 06:19:22 10° N 06:24:53 90° W 06:30:32 10° S
Cosmos 1340 4.2 06:21:32 10° N 06:25:06 37° ENE 06:28:37 10° SE
CZ-2C R/B 2.8 06:24:51 10° NNE 06:30:03 74° ESE 06:35:07 10° S
YAOGAN 1 3.0 06:26:55 10° NNE 06:31:15 68° ESE 06:35:33 10° S
CZ-3 R/B 3.1 06:26:21 10° SW 06:31:57 19° S 06:34:47 10° SE
CSL-04 Debris 4.4 06:28:36 10° N 06:33:52 51° WNW 06:39:08 10° SW
CSL-04 Rocket 4.0 06:28:40 10° N 06:33:54 44° WNW 06:39:04 10° SW
Meteor 1-5 Rocket 4.3 06:29:22 10° S 06:34:46 82° E 06:40:06 10° N
CENTAUR R/B 4.1 06:33:23 10° WNW 06:37:19 16° NNW 06:41:31 10° N
PSLV R/B 3.2 06:34:34 10° WNW 06:37:56 86° S 06:41:17 10° ESE
GRACE-2 3.8 06:36:52 10° N 06:39:37 60° W 06:42:22 10° SSW
USA 129 3.4 06:38:36 10° SW 06:39:57 16° W 06:41:23 10° NW
GRACE-1 3.9 06:37:18 10° N 06:40:03 58° W 06:42:46 10° SSW
Cosmos 1603 4.5 06:35:15 10° WSW 06:40:11 30° WNW 06:45:08 10° N
Cosmos 44 3.5 06:35:03 10° SSW 06:40:26 82° WNW 06:45:41 10° NNE
SJ-7 4.5 06:37:05 10° NNE 06:41:17 90° SE 06:45:23 10° SSW
Cosmos 1025 Rocket 3.1 06:37:04 10° NNW 06:41:23 60° W 06:45:40 10° S
SMAP 3.1 06:36:55 10° NNE 06:41:37 86° WNW 06:46:15 10° SSW
Okean 1 Rocket 4.0 06:38:14 10° SW 06:41:57 26° WNW 06:45:41 10° NNW
Cosmos 2369 Rocket 2.2 06:38:39 10° NNW 06:44:24 78° WSW 06:50:04 10° SSE
COSMO-SKYMED 1 4.4 06:44:26 10° WSW 06:46:32 13° W 06:48:37 10° WNW
Cosmos 1544 Rocket 3.6 06:43:16 10° S 06:47:35 87° E 06:51:59 10° N
SL-8 Rocket 4.0 06:41:25 10° S 06:47:41 78° W 06:53:57 10° N
Cosmos 1975 4.4 06:44:44 10° SSE 06:48:34 40° E 06:52:25 10° NNE
MSX 4.4 06:42:57 10° NNE 06:48:41 66° ESE 06:54:22 10° S
